Regional Weather Roundup
Issued by NWS Upton, NY

Current Version | Previous Version | Graphics & Text | Print | Product List | Glossary Off
Versions: 1 2 3 4 5 6 7 8 9 10 11 12 13 14 15 16 17 18 19 20 21 22 23 24 25 26 27 28 29 30 31 32 33 34 35 36 37 38 39 40 41 42 43 44 45 46 47 48 49 50

000
ASUS41 KOKX 201505
RWROKX

Regional Weather Roundup
National Weather Service New York NY
1000 AM EST TUE FEB 20 2018

Note: "FAIR" indicates few or no clouds below 12,000 feet with no
significant weather and/or obstructions to visibility.

NYZ071-072-176-178-NJZ106-104-201600-
New York City Metro Area

CITY           SKY/WX    TMP DP  RH WIND       PRES   REMARKS
Central Park   CLOUDY    53  51  93 W6        30.36S
Bronx Bot Gard   N/A     52  48  87 W7        30.36R
Bronx Lehman C   N/A     52  50  93 W7          N/A
LaGuardia Arpt CLOUDY    54  51  90 SW12G21   30.33S FOG
Queens College   N/A     54  52  94 W10         N/A
Kennedy Intl   CLOUDY    51  51 100 SW13      30.35S FOG
Breezy Point     N/A     46 N/A N/A W7G13       N/A
Brooklyn Coll    N/A     54  50  87 SW8         N/A
Staten Island    N/A     52  52 100 SW7         N/A
Newark/Liberty CLOUDY    53  51  93 SW12      30.34S
Teterboro      CLOUDY    52  49  89 W14G20    30.33S FOG
$$

NYZ177-179-078>081-201600-
Long Island New York

CITY           SKY/WX    TMP DP  RH WIND       PRES   REMARKS
Jones Beach      N/A     45 N/A N/A SW5         N/A
Wantagh          N/A     48  48 100 SW5         N/A
Hempstead      NOT AVBL
Matinecock Pt    N/A     46 N/A N/A SW14        N/A
Farmingdale    CLOUDY    52  52 100 W10       30.34S FOG
MacArthur/ISP  FOG       51  51 100 SW8       30.34S VSB 1/2
Shirley        FOG       49  49 100 S6        30.35R VSB 1/2
Mt Sinai Harb    N/A    N/A N/A N/A SW2         N/A
Westhampton    FOG       48  48 100 SW8       30.35F VSB 1/4
East Hampton   FOG       47  46  99 SW7       30.33F VSB 1/2
Southold         N/A     52  52 100 SW7         N/A
Montauk          N/A     49  48  97 SW7       30.34F
$$

NYZ052-065-067-201600-
Hudson Valley

CITY           SKY/WX    TMP DP  RH WIND       PRES   REMARKS
White Plains   FOG       49  49 100 W6        30.32R VSB 1
Larchmont Harb   N/A     50 N/A N/A SW13        N/A
Croton On Huds   N/A     48 N/A N/A S5G10       N/A
Somers           N/A     46  46 100 SW7         N/A
Brewster         N/A     46  45  93 S2          N/A
Newburgh       CLOUDY    46  46 100 W6        30.32S
Montgomery     CLOUDY    45  43  93 SW8       30.29S
Otisville        N/A     43  43 100 W6          N/A
Warwick          N/A     48  45  87 W7          N/A
Suffern          N/A     48  46  93 SW5         N/A
Poughkeepsie   CLOUDY    47  44  90 VRB6      30.30S FOG
Albany         PTSUNNY   49  43  80 S15       30.23F
$$

NJZ001-105-106-008-010-013-015-019>022-104-201600-
New Jersey

CITY           SKY/WX    TMP DP  RH WIND       PRES   REMARKS
Newark/Liberty CLOUDY    53  51  93 SW12      30.34S
Teterboro      CLOUDY    52  49  89 W14G20    30.33S FOG
Caldwell       CLOUDY    50  50 100 SW6       30.34S
Somerville     CLOUDY    49  49 100 CALM      30.34S FOG
Linden         CLOUDY    52  51  99 CALM      30.35S FOG
Perth Amboy      N/A     52 N/A N/A W10         N/A
Sussex         CLOUDY    46  45  96 SW8       30.32F
Andover          N/A     46  46 100 S6        30.33S
Trenton        CLOUDY    54  53  97 SW8       30.36R
Millville      PTSUNNY   62  56  80 SW8G17    30.38F
Atlantic City  CLOUDY    63  58  83 SW10      30.39R
Wrightstown    CLOUDY    59  55  85 W12       30.33
Toms River     PTSUNNY   62  56  80 SW16G23   30.37R
Belmar         CLOUDY    61  55  81 SW13      30.36S
$$

PAZ047>061-062-071-201600-
Eastern Pennsylvania

CITY           SKY/WX    TMP DP  RH WIND       PRES   REMARKS
Philadelphia   CLOUDY    53  53 100 SW10      30.38R FOG
Allentown      FOG       44  42  93 CALM      30.35S VSB 1/4
Scranton       CLOUDY    46  46 100 SW6       30.29F FOG
$$

CTZ002-004>006-009-010-012-RIZ004-006-007-MAZ004-011-015-201600-
Southern New England

 In CT

CITY           SKY/WX    TMP DP  RH WIND       PRES   REMARKS
Bradley Intl   PTSUNNY   51  47  86 S13       30.28S
Hartford       CLOUDY    52  49  89 SW8       30.30S
Danbury        CLOUDY   N/A N/A N/A W12       30.32S
Wtrbury/Oxford FOG       48  48 100 W6        30.31S VSB 1/2
Norwalk Harbor   N/A     46 N/A N/A SW14        N/A
Bridgeport     CLOUDY    49  48  97 SW9       30.32S FOG
Meriden        CLOUDY    50  49  96 SW6       30.31S
New Haven      FOG       49  48  97 SW6       30.32S VSB 1
Chester        FOG       52  52 100 SW10G20   30.30F VSB 1/4
Groton         FOG       47  46  97 SW3       30.32F VSB 1/4
Willimantic    CLOUDY    53  50  89 SW8       30.30S

 In RI

CITY           SKY/WX    TMP DP  RH WIND       PRES   REMARKS
Providence     CLOUDY    54  53  97 SW12      30.29F
Block Island   LGT RAIN  45  45 100 SW13      30.35R VSB 1/2
Westerly       FOG       48  48 100 SW8       30.33S VSB 1/4

In MA

CITY           SKY/WX    TMP DP  RH WIND       PRES   REMARKS
Boston         PTSUNNY   56  51  84 SW9       30.24F
Worcester      FAIR      52  49  89 SW13      30.25S
Westfield      CLOUDY    50  48  93 S7        30.26F
Provincetown   CLOUDY    46  46 100 SW16      30.28S FOG
Nantucket      FOG       47  47 100 SW15      30.35S VSB 1/4
$$

ANZ330-335-338-340-345-350-353-355-201600-
Coastal Marine Observations


STATION/POSITION TIME  SKY/WX   TEMP    WIND        PRES    VSBY  WAVE
                                AIR SEA DIR/SP/G                  HT/PER
                 (UTC)          (F)     (DEG/KT/KT) (MB)    (MI)  (FT/S)
NY Harb Entrance 1450            43 41  230/  6/  8 1027.4          4/ 5
20 S Fire Island 1450            46 42  220/ 14/ 16 1027.7          4/ 5
15 E Barnegat Li 1430               41                N/A           4/11
Hudson Canyon    1450            50 46  210/ 17/ 19 1028.7          5/ 5
Kings Point      1442            51 38  260/  8/ 10 1028.3
Execution Rocks  NOT AVBL
Western LI Sound NOT AVBL
Central LI Sound 1400            42     230/  6/  6   N/A           0
Robbins Reef     1442            51     260/  9/ 10 1028.2
$$


>>>>>>>>>>>>>>>>>>>>>>>>>>>> KEY <<<<<<<<<<<<<<<<<<<<<<<<<<<
>                                                          <
>     SKY/WX - Sky Condition/Present Weather               <
>     TMP    - Temperature in Fahrenheit                   <
>     DP     - Dew Point in Fahrenheit                     <
>     RH     - Relative Humidity in Percent                <
>     WIND   - Direction (from) and Speed in MPH           <
>     PRES   - Mean Sea Level Pressure (inches of Hg)      <
>     WCI    - Wind Chill Index                            <
>     VSB    - Visibility in Miles                         <
>     HX     - Heat Index                                  <
>     TC     - Temperature in Celsius                      <
>     VRB    - Varibale Wind Direction                     <
>                                                          <
>>>>>>>>>>>>>>>>>>>>>>>>>>>> KEY <<<<<<<<<<<<<<<<<<<<<<<<<<<



USA.gov is the U.S. government's official web portal to all federal, state and local government web resources and services.